Location: Newark
(52.2090°N, 4.1550°W)
Time: 10:47:17
(UTC+00:00)

Explorer 7 - Pass Details

Date: 26 September 2019
Orbit: 485 x 680 km, 50.3° (Epoch: 21 October)

Event Time Altitude Azimuth Distance (km) Brightness Sun altitude
Rises 02:16:23 0° 282° (WNW) 2,933 - -32.3°
Reaches altitude 10° 02:18:51 10° 272° (W) 2,050 - -32.1°
Maximum altitude 02:23:03 32° 210° (SSW) 1,141 - -31.6°
Drops below altitude 10° 02:27:21 10° 148° (SSE) 2,105 - -31.2°
Sets 02:29:56 0° 139° (SE) 3,024 - -30.9°
